Regional Weather Roundup
Issued by NWS

Home | Current Version | Previous Version | Text Only | Print | Product List | Glossary Off
Versions: 1 2 3 4 5 6 7 8 9 10 11 12 13 14 15 16 17 18 19 20 21 22 23 24 25 26 27 28 29 30 31 32 33 34 35 36 37 38 39 40 41 42 43 44 45 46 47 48 49 50

264
ASUS45 KTFX 282210
RWRMT
MONTANA REGIONAL WEATHER ROUNDUP
NATIONAL WEATHER SERVICE GREAT FALLS MT
400 PM MDT SUN MAY 28 2017

NOTE: "FAIR" INDICATES FEW OR NO CLOUDS BELOW 12000 FEET WITH NO
SIGNIFICANT WEATHER AND/OR OBSTRUCTIONS TO VISIBILITY.

MTZ001>007-043-282300-
WEST OF THE DIVIDE

CITY           SKY/WX    TMP DP  RH WIND       PRES   REMARKS
KALISPELL      MOSUNNY   80  40  23 NE5       30.15F
MISSOULA       SUNNY     80  37  21 NW8       30.16F
BUTTE          MOSUNNY   71  34  25 VRB6      30.25F
MULLAN PASS    CLOUDY    64  37  36 CALM      30.29F
ANACONDA         N/A     73  36  25 NW6       30.22F
DEER LODGE       N/A     70  39  32 NE16      30.24S
EUREKA           N/A     81  34  18 NE5       30.13F
HAMILTON         N/A     79  32  18 NE5       30.16F
RONAN            N/A     79  42  26 SW3       30.20F
$$

MTZ008-052>055-282300-
SOUTHWEST MONTANA

CITY           SKY/WX    TMP DP  RH WIND       PRES   REMARKS
BOZEMAN        MOSUNNY   74  37  26 CALM      30.20F
DILLON         SUNNY     70  34  26 VRB3      30.23F
ENNIS          SUNNY     66  34  30 N16G24    30.29S
THREE FORKS      N/A     75  39  27 SW6       30.18F
$$

MTZ009-010-012-014-046-048-049-054-282300-
EAST SLOPES AND CENTRAL MONTANA

CITY           SKY/WX    TMP DP  RH WIND       PRES   REMARKS
CUT BANK       SUNNY     72  40  31 N12       30.23S
GREAT FALLS    CLOUDY    73  42  32 NE17G23   30.22S
MALMSTROM AFB  PTSUNNY   67  44  42 N6        30.23R
HELENA         MOSUNNY   72  38  29 NW13      30.21F
CHOTEAU          N/A     68  46  45 VRB5      30.25F
CONRAD           N/A     75  56  51 NW9       30.23S
$$

MTZ011-013-016-021-045-047-050-051-282300-
NORTH CENTRAL MONTANA

CITY           SKY/WX    TMP DP  RH WIND       PRES   REMARKS
HAVRE          MOSUNNY   76  36  23 N17G26    30.17S
LEWISTOWN      PTSUNNY   67  41  38 NW14G21   30.23F
N BAR RANCH      N/A     66  39  37 NW15G22   30.25F
CHINOOK          N/A     73  34  23 NW18G31   30.15F
$$

MTZ017>020-022>027-061-062-282300-
NORTHEAST MONTANA

CITY           SKY/WX    TMP DP  RH WIND       PRES   REMARKS
GLASGOW        SUNNY     74  27  17 NW23G37   30.08S
JORDAN           N/A     76  28  17 N23G37    30.09R
SIDNEY         MOSUNNY   73  31  21 N24G32    30.00S
WOLF POINT     MOSUNNY   75  31  19 NW21G36   30.04F
MALTA          SUNNY     73  28  19 N18G31    30.12S
PLENTYWOOD       N/A     66  30  26 NW24G32   29.99R
POPLAR           N/A     70  32  24 N20G30    30.03F
SCOBEY           N/A     66  32  28 NW22      30.04
$$

MTZ028>42-056>058-282300-
SOUTHCENTRAL AND SOUTHEAST MONTANA

CITY           SKY/WX    TMP DP  RH WIND       PRES   REMARKS
BAKER          SUNNY     74  31  20 NW30G39   30.02S
BILLINGS       CLOUDY    71  39  31 NE12      30.19R
LIVINGSTON     MOSUNNY   64  46  52 E17       30.23F
MILES CITY     MOSUNNY   77  29  17 N26G32    30.05S
BIG TIMBER     PTSUNNY   63  45  51 W5        30.28S
EKALAKA          N/A     70  28  21 NW21      30.02
FORSYTH          N/A     73  39  29 NW16G26   30.07F
LAUREL           N/A     74  38  27 SW12      30.15F
ROUNDUP          N/A     63  42  46 NW15      30.11R
$$

REGIONAL REPORTS...DAKOTAS

CITY           SKY/WX    TMP DP  RH WIND       PRES   REMARKS
WILLISTON      PTSUNNY   70  33  25 NW25G33   29.99S
MINOT          CLOUDY    66  39  37 NW28      29.88S
DICKINSON      SUNNY     70  28  21 NW25G40   29.94R
BEACH            N/A     70  30  23 NW23G38   30.04S
CROSBY         PTSUNNY   68  32  26 NW31G44   29.96R
TIOGA          PTSUNNY   66  34  30 N30G36    29.97S
WATFORD CITY     N/A     68  34  28 NW25G36   29.96S
BISMARCK       MOSUNNY   73  34  23 NW23G45   29.86R
GRAND FORKS    CLOUDY    62  50  64 N12       29.71F
FARGO          CLOUDY    65  49  56 NW15      29.74R
BUFFALO SD       N/A     75  37  25 NW25G41   29.92F
RAPID CITY     PTSUNNY   73  38  27 NW35G51   30.04R
$$

REGIONAL REPORTS...WYOMING/IDAHO/WASHINGTON

CITY           SKY/WX    TMP DP  RH WIND       PRES   REMARKS
GILLETTE       MOSUNNY   66  40  38 NW22G32   30.14R
SHERIDAN       MOSUNNY   63  44  50 W14G25    30.19F
BUFFALO WY     MOSUNNY   61  39  44 NW24G39   30.24R
CODY           LGT RAIN  57  44  62 NE16      30.27R
YELLOWSTONE LA   N/A     57  31  37 VRB7      30.37F
IDAHO FALLS    MOSUNNY   74  38  27 VRB6      30.23F
SALMON         SUNNY     75  34  22 NW6       30.15F
BOISE          SUNNY     82  35  18 CALM      30.13F
SPOKANE        MOSUNNY   82  38  20 VRB7      30.13F
$$

REGIONAL REPORTS...ALBERTA

CITY           SKY/WX    TMP DP  RH WIND       PRES   REMARKS
EDMONTON       SUNNY     66  36  32 N8        30.25F
CALGARY        MOSUNNY   70  41  35 E5        30.24F
LETHBRIDGE     MOSUNNY   73  39  29 VRB8      30.22F
MEDICINE HAT   MOSUNNY   72  37  28 N20G26    30.18F
CARDSTON         N/A     72  41  33 N8          N/A
MILK RIVER       N/A     72  41  33 N9          N/A
$$

REGIONAL REPORTS...SASKATCHEWAN

CITY           SKY/WX    TMP DP  RH WIND       PRES   REMARKS
SWIFT CURRENT  SUNNY     68  25  19 N30G36    30.10F
REGINA         PTSUNNY   63  36  36 NW35G46   30.01S
SASKATOON      PTSUNNY   64  39  39 N20G32    30.11S
CYPRESS HILLS    N/A     61  28  29 N14G28      N/A
VAL MARIE        N/A     70  28  21 N24G36      N/A
ROCKGLEN         N/A     64  30  27 NW23G33     N/A
$$




USA.gov is the U.S. government's official web portal to all federal, state and local government web resources and services.